Regional Weather Roundup
Issued by NWS

Home | Current Version | Previous Version | Graphics & Text | Print | Product List | Glossary On
Versions: 1 2 3 4 5 6 7 8 9 10 11 12 13 14 15 16 17 18 19 20 21 22 23 24 25 26 27 28 29 30 31 32 33 34 35 36 37 38 39 40 41 42 43 44 45 46 47 48 49 50
000
ASUS43 KMKX 210321
RWRWI

WISCONSIN REGIONAL WEATHER ROUNDUP
NATIONAL WEATHER SERVICE MILWAUKEE/SULLIVAN WI
1000 PM CDT FRI OCT 20 2017

NOTE: "FAIR" INDICATES FEW OR NO CLOUDS BELOW 12,000 FEET WITH NO
SIGNIFICANT WEATHER AND/OR OBSTRUCTIONS TO VISIBILITY.

WIZ001-002-006>008-014>016-023>028-210400-
NORTHWEST WISCONSIN

CITY           SKY/WX    TMP DP  RH WIND       PRES   REMARKS
SUPERIOR ARPT  CLOUDY    67  44  43 S10G17    29.72S
ASHLAND        PTCLDY    68  42  38 S13G25    29.77R
HAYWARD        PTCLDY    66  43  43 S13       29.80R
SIREN          CLOUDY    67  43  42 S16G25    29.75F
CUMBERLAND     CLOUDY    61  43  51 S10       29.80S
RICE LAKE      CLOUDY    63  44  51 SE8       29.81S
CHETEK         CLOUDY    62  46  57 SE9       29.82R
LADYSMITH      CLOUDY    63  45  52 SE8       29.85S
EAU CLAIRE     MOCLDY    65  45  48 S10       29.81S
MENOMONIE      MOCLDY    67  44  43 S18       29.80S
NEW RICHMOND   PTCLDY    65  43  44 S16       29.77S
OSCEOLA        MOCLDY    67  46  47 S15G24    29.78S
$$

WIZ003>005-009-010-017-018-210400-
NORTH CENTRAL WISCONSIN

CITY           SKY/WX    TMP DP  RH WIND       PRES   REMARKS
MANITOWISH WTR PTCLDY    62  43  49 S9G18     29.86S
ARBOR VITAE    CLOUDY    64  43  46 S13G18    29.88S
WOODRUFF       CLOUDY    64  43  46 S13G18    29.88S
RHINELANDER    CLOUDY    64  44  48 S10       29.90S
EAGLE RIVER    CLOUDY    62  40  44 S6        29.89S
LAND O LAKES   CLOUDY    63  42  44 S10G16    29.90S
PHILLIPS       CLOUDY    63  45  51 S14G21    29.85S
TOMAHAWK       CLOUDY    57  43  58 CALM      29.89F
MEDFORD        PTCLDY    59  44  57 SE10      29.87S
MERRILL        PTCLDY    63  45  51 S8        29.91R
$$

WIZ029-030-035-036-043>047-210400-
CENTRAL WISCONSIN

CITY           SKY/WX    TMP DP  RH WIND       PRES   REMARKS
WAUSAU         CLEAR     62  45  53 S10       29.89S
MOSINEE        PTCLDY    63  46  55 S14       29.92S
MARSHFIELD     PTCLDY    62  44  51 S13       29.88S
STEVENS POINT  CLOUDY    63  45  51 S13       29.92S
WAUPACA        CLOUDY    61  46  58 SE5       29.94S
WAUTOMA        CLOUDY    62  48  60 S8        29.94S
WISC RAPIDS    PTCLDY    66  47  50 S10       29.91S
CAMP DOUGLAS   NOT AVBL
$$

WIZ011>013-019>022-031-037>040-048>050-210400-
NORTHEAST WISCONSIN

CITY           SKY/WX    TMP DP  RH WIND       PRES   REMARKS
ANTIGO         CLOUDY    56  44  64 S9        29.93F
SHAWANO        CLOUDY    62  47  57 S5        29.93S
OCONTO         PTCLDY    60  51  72 S6        29.94S
STURGEON BAY   CLOUDY    60  51  72 S13       29.96F
GREEN BAY      CLOUDY    62  51  67 S9        29.96R
MANITOWOC      CLOUDY    57  52  83 S8        29.99
APPLETON       PTCLDY    63  46  55 S10       29.94S
CLINTONVILLE   CLOUDY    61  46  59 S7        29.93S
OSHKOSH        PTCLDY    64  50  60 S13       29.95S
$$

WIZ032>034-041-042-053>061-210400-
SOUTHWEST WISCONSIN

CITY           SKY/WX    TMP DP  RH WIND       PRES   REMARKS
LA CROSSE      CLOUDY    68  45  43 S14       29.86R
SPARTA         CLOUDY    68  45  42 S9G22     29.88R
VIROQUA        CLOUDY    66  45  45 S13       29.90S
BOSCOBEL       CLOUDY    69  45  41 S9        29.92R
PRAIRIE DU CHI CLOUDY    69  41  35 SE7G18    29.90R
PLATTEVILLE    CLOUDY    67  46  48 S17       29.96R
$$

WIZ056-057-062-063-064-067-068-210400-
SOUTH CENTRAL WISCONSIN

CITY           SKY/WX    TMP DP  RH WIND       PRES   REMARKS
REEDSBURG      PTCLDY    67  47  49 S15G21    29.92S
BARABOO/DELLS  PTCLDY    65  45  47 S12G20    29.93S
LONE ROCK      CLOUDY    69  47  45 S14G22    29.93S
MINERAL POINT  CLOUDY    64  46  52 S12       29.96R
MADISON        MOCLDY    65  49  56 S10       29.97R
MIDDLETON      MOCLDY    67  47  49 S10G20    29.97S
WATERTOWN      CLOUDY    64  50  59 S10       29.99R
MONROE         MOCLDY    63  45  51 S15       29.98S
JANESVILLE     CLOUDY    68  43  40 S13       29.99S
$$

WIZ051-052-058>065-066-070>072-210400-
SOUTHEAST WISCONSIN

CITY           SKY/WX    TMP DP  RH WIND       PRES   REMARKS
MILWAUKEE      CLOUDY    68  49  50 S13       30.01S
WAUKESHA       NOT AVBL
MILWAUKEE/TIMM CLOUDY    66  45  45 S12       30.01S
RACINE         PTCLDY    63  52  67 S10       30.04R
BURLINGTON     CLOUDY    65  50  59 S8        30.02R
KENOSHA        CLOUDY    67  48  50 S10       30.03R
FOND DU LAC    MOCLDY    65  47  52 S8        29.97R
SHEBOYGAN      CLOUDY    54  51  90 S5        29.99S
WEST BEND      PTCLDY    64  46  52 S9        30.00R
JUNEAU         PTCLDY    62  49  62 S9        29.99R
$$

LSZ147-162-210400-
LAKE SUPERIOR

STATION/POSITION TIME  TEMP    WIND        PRES    WAVE
                       AIR SEA DIR/SP/G            HT/PER
                 (UTC) (F)     (DEG/KT/KT) (MB)    (FT/S)
W MID LAKE BUOY  0250   59 53              1008.0R   0
DEVILS ISLAND    0300   68     180/ 11/ 15 1007.6R
SAXON HARBOR     0251   71     180/ 11/ 25 1007.8R
$$

LMZ867-665-643>646-210400-
LAKE MICHIGAN

STATION/POSITION TIME  TEMP    WIND        PRES    WAVE
                       AIR SEA DIR/SP/G            HT/PER
                 (UTC) (F)     (DEG/KT/KT) (MB)    (FT/S)
S GREEN BAY BUOY 0300   63 58  180/ 14/ 16 1013.7
N MID LAKE BUOY  0250   62 58  180/ 17/ 19 1015.3S   5/ 6
NORTHPORT PIER   0240   60     150/  8/ 16 1014.2S
KEWAUNEE LAKESHO 0254   54     180/  9/ 11 1014.2F
SHEBOYGAN LAKESH 0300   58     180/ 18/ 19 1015.3S
PORT WASHINGTON  0240   55     190/  2/  4 1016.9R
ATWATER BUOY     0209   58 53  180/ 10/ 12 1016.1S
MILWAUKEE LAKESH 0300   66     190/ 10/ 11   N/A
S MID LAKE BUOY  0250   65 61  160/ 16/ 17 1017.4R   2/ 3
KENOSHA   LAKESH 0300   58     170/ 12/ 14 1016.9
$$

TC  - TEMPERATURE IN CELSIUS
VSB - VISIBILITY IN STATUTE MILES
WCI - WIND CHILL INDEX
HX  - HEAT INDEX





USA.gov is the U.S. government's official web portal to all federal, state and local government web resources and services.